GFSSE_sfc_temp_333.txt.gz
Temp
83 86 80 81 80 80 80 81 80 80 80 80 81 80 80 80 80 80 80 80 80 81 81 81 81 81 81 81 80 80 80 80 80 80 80 80 79 79 79 79 79 85 78
86 86 80 80 80 80 81 80 80 79 80 80 80 80 80 80 80 80 80 80 80 81 81 81 81 81 81 81 81 80 80 80 80 80 80 80 79 79 79 79 79 82 78
85 84 83 80 80 80 80 79 79 79 79 79 80 80 80 80 80 80 80 80 81 81 81 81 81 81 81 81 81 80 80 80 79 79 80 90 88 80 79 79 79 78 78
85 83 82 79 80 80 80 79 79 79 79 79 79 80 80 79 80 80 80 80 81 81 81 81 81 81 81 81 81 80 80 80 80 80 88 88 89 80 79 79 79 78 78
84 83 83 79 79 80 80 79 79 79 79 79 80 80 80 79 79 79 80 80 81 81 81 81 81 80 80 80 80 80 80 80 80 83 88 87 89 85 80 79 79 78 78
81 82 81 79 80 80 79 79 79 79 79 79 80 79 79 79 79 79 79 79 80 80 81 81 80 80 80 80 79 79 80 80 80 87 87 85 85 81 80 79 79 79 78
81 81 84 80 80 80 80 79 79 79 79 79 79 79 79 78 78 79 79 79 79 80 80 80 80 79 79 79 79 79 79 80 88 89 87 85 86 77 80 79 79 79 78
83 79 81 79 80 79 80 79 79 79 79 79 79 79 78 78 78 78 79 79 79 79 79 80 79 79 79 79 79 79 79 80 88 87 87 88 80 77 79 80 79 79 78
83 79 78 80 79 79 78 78 78 78 78 78 78 78 78 78 78 78 78 78 79 79 79 79 79 79 78 78 78 78 79 80 90 90 87 89 78 78 79 80 79 79 79
76 76 76 76 80 80 82 78 78 78 78 78 78 78 77 77 77 78 77 79 78 78 79 79 79 78 78 78 78 78 79 80 91 90 89 90 77 78 79 79 79 79 79
74 75 75 76 76 77 78 79 79 78 78 77 79 76 79 85 83 84 79 77 78 78 78 78 78 78 78 79 78 78 78 93 87 91 91 80 78 79 80 79 79 79 79
72 76 78 79 79 81 83 82 82 83 85 83 83 81 84 82 82 82 80 76 76 76 78 77 77 79 83 89 91 85 91 91 92 90 92 79 78 79 80 80 79 79 78
74 75 76 75 76 81 83 83 83 84 84 83 80 80 81 84 85 86 87 87 85 80 86 85 86 87 86 88 89 88 89 91 93 93 90 78 78 79 80 80 79 79 79
73 73 75 74 74 76 80 80 79 81 81 81 79 78 81 83 81 81 83 82 81 82 81 83 85 82 84 84 86 86 88 89 91 91 90 79 77 79 80 80 79 80 79
72 72 74 74 74 75 75 75 75 75 76 76 76 75 79 79 77 79 77 79 78 79 79 80 81 80 82 83 84 83 84 85 87 89 89 81 77 78 79 80 80 81 80
69 71 72 73 72 75 72 72 73 73 73 74 73 72 72 74 73 75 75 75 75 76 77 77 76 77 79 80 81 80 81 84 84 84 88 89 78 76 78 79 80 81 81
67 69 70 70 72 71 71 72 72 74 73 72 72 70 70 71 70 70 72 72 72 72 74 74 75 76 77 78 77 79 81 81 83 82 85 88 88 79 78 78 79 80 81
66 65 67 71 71 69 69 70 70 70 70 70 70 69 69 69 67 68 70 69 69 70 71 71 72 73 74 74 74 77 78 80 80 81 84 85 85 87 83 78 78 79 79
64 65 65 67 69 68 67 68 68 67 68 68 68 68 66 66 66 67 67 66 67 68 67 67 69 68 69 69 73 76 76 76 77 80 74 72 71 73 78 75 74 74 74
65 64 64 64 65 65 64 67 67 66 65 66 66 65 64 65 64 65 65 63 65 65 65 64 63 66 65 65 70 74 74 75 74 76 75 75 71 68 66 63 63 66 70
63 63 64 64 63 63 65 63 65 61 60 59 58 58 57 57 59 62 63 62 63 61 59 60 63 61 63 63 67 72 69 68 69 73 74 72 70 72 69 63 62 64 68
62 62 62 63 63 63 64 59 59 58 56 56 56 57 59 59 60 59 59 59 59 60 57 57 57 62 61 60 60 66 67 72 70 70 71 69 67 69 69 68 66 64 63
61 61 61 61 61 62 61 62 61 60 60 59 58 59 58 58 58 58 58 58 58 59 58 56 56 55 59 60 58 59 64 62 61 69 67 68 63 65 66 67 65 66 66
61 61 61 61 61 61 61 61 60 60 58 57 58 56 58 58 58 58 57 57 56 58 56 56 56 56 58 56 61 58 57 56 55 60 68 65 64 64 63 64 65 65 66
62 62 61 60 60 60 60 60 61 58 58 59 59 56 56 57 57 58 57 57 56 58 55 54 54 54 56 56 56 57 56 56 56 54 54 59 62 64 64 64 63 65 65
63 62 61 60 58 59 59 59 58 56 57 57 57 57 58 59 59 57 57 57 56 56 55 55 55 53 53 54 56 55 55 54 53 52 51 54 55 61 62 63 63 64 64

GFSSE_sfc_temp_336.txt.gz
Temp
94 89 80 81 81 81 81 81 81 80 80 80 81 81 80 80 80 81 81 81 81 81 81 81 81 81 81 81 81 80 81 81 81 81 80 80 80 79 79 79 80 90 78
96 91 80 81 81 81 81 81 81 80 81 80 80 80 80 80 80 80 81 81 81 81 82 82 82 82 82 81 81 81 81 80 81 81 81 80 80 80 79 79 80 83 78
95 88 86 81 81 81 81 80 80 81 80 80 80 80 80 80 80 80 81 81 81 82 82 82 82 82 82 82 81 81 81 81 80 80 81 93 91 80 80 79 79 79 78
93 90 89 80 80 81 80 80 79 80 80 80 80 80 80 80 80 80 81 81 81 82 82 82 81 81 81 81 81 81 81 81 81 81 92 96 95 80 80 80 79 79 78
91 91 86 80 80 80 80 79 79 79 80 80 80 80 80 80 80 80 80 81 81 81 82 82 81 81 81 81 81 80 81 81 81 84 96 95 97 84 80 80 80 79 79
94 95 82 80 80 80 80 79 79 79 80 80 80 80 80 80 80 80 80 80 80 81 81 81 81 81 81 81 80 80 80 80 80 96 94 91 91 79 80 80 80 79 78
92 93 90 80 80 81 80 79 79 79 79 79 80 80 79 79 79 79 79 80 80 80 81 81 81 80 80 80 80 80 80 80 92 98 95 91 94 80 80 80 80 79 79
89 90 88 80 81 80 80 79 79 79 79 79 79 79 79 79 79 79 79 79 79 80 80 80 80 80 79 79 79 79 79 80 92 94 96 97 80 78 79 80 79 79 79
89 84 82 86 83 79 80 80 79 79 79 79 78 78 78 78 78 78 78 79 79 79 79 79 79 79 79 79 79 79 79 80 93 99 96 98 77 79 79 80 80 79 79
86 83 85 83 85 88 86 79 79 79 78 78 78 78 78 79 79 79 79 78 78 79 79 79 79 79 79 79 79 79 79 80 97 98 98 96 79 79 80 80 80 79 79
80 83 84 84 83 85 88 85 81 79 79 78 80 78 80 95 93 91 78 78 78 78 78 78 78 79 79 80 79 79 79 101 96 100 102 80 79 79 80 80 79 79 79
87 89 90 89 88 90 91 90 88 91 93 93 91 89 92 92 91 89 84 77 78 78 78 78 79 81 84 99 98 86 101 101 102 99 101 81 79 79 80 80 80 80 79
89 88 90 86 86 92 93 92 93 92 92 90 88 87 90 93 94 95 96 96 95 85 97 92 94 97 94 96 98 97 97 99 101 101 93 80 79 79 80 80 80 80 79
87 86 87 88 85 88 92 91 91 92 91 92 90 87 89 90 90 90 94 92 92 93 90 92 95 90 92 92 94 93 95 96 98 98 94 81 79 79 80 80 80 80 80
84 84 86 86 85 85 85 88 88 88 90 88 88 84 90 90 88 89 88 90 89 90 90 90 90 89 90 92 92 90 92 92 94 96 96 82 79 78 79 80 80 80 80
80 81 83 83 82 85 83 82 84 85 83 85 83 82 81 86 84 87 87 86 86 86 87 87 86 85 87 89 89 88 88 90 91 91 95 95 81 78 78 79 80 80 80
78 78 78 79 80 80 79 81 82 84 84 82 80 78 78 79 78 81 83 83 82 82 83 84 84 85 86 87 86 87 88 89 90 88 90 94 94 80 78 77 79 79 79
76 75 77 81 80 78 78 80 81 81 81 80 79 78 76 77 76 78 81 78 77 80 80 80 81 81 83 82 83 85 86 86 87 86 76 78 81 83 78 70 72 74 76
73 75 74 77 78 77 75 77 77 75 78 78 78 77 73 74 74 76 76 74 75 78 77 76 78 76 78 78 81 84 84 85 84 81 74 72 72 73 74 70 69 70 71
73 73 73 75 73 73 75 76 77 76 76 76 75 73 71 73 72 74 74 71 75 74 74 72 70 74 74 74 79 83 82 82 83 77 79 82 78 76 74 69 70 70 69
72 71 72 72 71 73 74 76 76 74 72 70 70 67 67 67 66 68 73 72 72 69 67 68 72 70 73 72 78 83 78 78 78 81 81 78 74 78 77 77 72 69 69
71 71 71 72 70 72 75 75 75 71 68 67 65 64 66 66 67 67 68 67 67 69 65 65 65 72 72 70 70 75 78 78 79 78 78 76 73 77 77 76 73 73 72
70 70 71 71 71 72 71 71 69 68 68 64 65 67 64 65 65 65 64 65 64 68 66 64 65 64 69 69 67 69 72 71 72 79 75 75 72 74 74 74 73 73 72
71 71 70 70 69 69 70 70 68 71 68 68 68 66 65 65 63 63 61 61 63 66 63 64 65 65 67 66 70 67 65 63 64 69 78 75 74 73 71 73 72 72 71
71 70 70 68 68 68 68 69 69 68 66 68 67 63 62 63 64 65 64 63 63 66 62 61 61 62 66 66 66 67 65 69 65 64 64 68 73 74 74 72 71 73 71
73 70 68 66 65 66 66 66 66 64 65 66 65 66 67 67 66 64 64 63 63 63 62 62 62 60 61 62 65 65 65 64 63 63 63 64 64 70 72 72 72 72 72

GFSSE_sfc_temp_339.txt.gz
Temp
94 88 81 82 82 81 81 81 81 80 80 81 81 81 81 81 81 81 81 81 81 81 82 82 82 82 82 81 81 81 81 81 81 81 81 80 80 80 80 80 82 87 79
96 90 81 82 82 81 81 81 80 80 80 81 81 81 80 81 81 81 81 81 81 82 82 82 82 82 82 82 82 81 81 81 81 81 81 80 80 80 80 80 82 82 79
96 90 88 82 82 81 81 81 81 81 80 80 80 80 80 80 81 81 81 81 82 82 82 82 82 82 82 82 82 81 81 81 81 81 82 88 88 80 80 80 79 79 78
94 93 90 81 81 81 80 81 81 81 80 80 80 80 80 80 81 81 81 81 82 82 82 82 82 82 82 81 81 81 81 81 82 81 89 89 92 80 80 80 79 79 78
96 95 85 81 80 80 80 80 80 80 80 80 80 81 80 80 80 80 81 81 82 82 82 82 82 81 81 81 81 81 81 81 82 84 88 92 94 83 80 80 79 79 79
98 95 83 81 80 80 80 80 80 80 80 81 81 81 81 80 80 80 80 81 81 81 82 82 81 81 81 81 81 81 81 81 81 93 95 91 92 80 81 81 81 80 79
99 94 89 80 80 80 80 80 80 80 80 80 81 80 80 80 80 80 80 80 80 81 81 81 81 81 80 80 80 80 80 81 89 97 96 93 88 80 81 80 80 80 79
97 95 87 81 80 81 80 80 80 80 80 80 80 80 80 79 79 79 79 79 80 80 80 80 80 80 80 80 80 80 80 80 91 96 97 97 80 80 81 80 80 79 79
97 95 91 89 84 80 79 79 79 79 79 79 79 79 79 79 79 79 79 79 79 79 79 79 80 80 79 79 80 80 80 80 90 97 98 95 79 81 80 80 80 79 79
95 92 93 92 91 90 88 80 79 79 79 79 79 79 78 79 81 81 80 79 79 79 79 80 80 80 80 79 80 80 80 81 93 101 98 91 80 81 80 80 80 80 79
91 94 94 95 93 96 95 87 81 79 79 79 80 80 82 91 91 88 80 79 78 79 79 79 80 80 81 80 82 81 81 93 98 100 95 80 81 81 81 80 80 79 79
90 93 95 95 93 95 94 90 91 91 91 91 92 90 93 95 93 92 86 80 79 80 80 80 81 82 82 98 92 84 97 102 102 101 93 81 81 81 81 80 80 80 79
95 94 96 93 91 96 97 94 95 95 94 93 90 90 92 94 95 95 96 90 89 83 94 88 91 96 96 97 98 99 99 99 101 102 88 82 80 80 80 80 80 80 80
95 93 95 93 90 93 97 94 95 95 95 94 93 89 89 91 92 92 96 95 95 96 94 95 97 93 93 94 96 95 96 97 99 99 94 81 80 80 80 80 80 80 79
92 92 94 92 89 90 90 94 93 94 93 94 91 90 91 92 90 91 91 92 92 92 93 92 92 90 91 93 94 92 93 93 95 96 97 82 82 80 79 80 80 80 80
90 89 93 91 88 91 89 88 90 91 88 90 89 86 86 88 85 88 89 89 89 89 89 90 90 88 89 91 91 91 90 91 92 92 95 93 79 75 76 78 79 80 80
87 87 86 88 88 86 85 85 88 88 90 87 84 81 81 82 82 81 86 86 85 85 86 86 86 87 88 90 88 89 90 91 91 90 90 90 73 72 71 72 73 75 79
84 82 84 88 84 82 83 84 86 86 86 85 84 82 80 80 78 82 85 81 80 82 84 82 83 83 84 84 84 86 88 88 89 86 83 82 83 82 77 71 71 72 74
81 80 80 83 83 81 80 83 83 80 83 83 83 81 77 78 78 79 80 78 77 80 80 78 79 79 79 80 82 86 86 86 85 82 80 77 75 77 77 72 71 70 70
80 79 77 80 77 76 79 79 83 81 81 81 79 76 74 76 75 77 78 74 77 77 76 74 73 76 77 77 81 86 84 85 82 82 81 82 79 79 78 75 73 70 70
77 77 74 76 74 76 72 74 79 79 77 76 74 72 72 73 73 73 77 75 75 71 69 70 73 74 76 75 76 82 80 80 80 82 82 79 77 81 78 77 77 77 73
74 75 75 75 72 74 78 76 78 78 76 74 72 69 70 69 70 70 70 70 70 72 67 67 68 73 75 72 71 75 77 77 81 79 80 77 75 79 78 77 74 74 75
75 75 75 75 71 74 77 74 74 72 71 71 70 70 68 68 68 68 68 68 68 70 68 66 67 66 71 72 70 71 73 73 74 78 76 76 75 77 76 76 74 75 73
76 77 76 76 72 73 73 74 71 73 72 73 72 69 68 68 68 67 66 66 65 67 64 64 63 64 66 69 73 71 68 67 66 71 78 76 76 76 74 75 74 75 73
78 76 75 74 73 72 72 73 71 72 70 72 70 66 65 66 67 68 67 67 66 68 64 64 64 64 68 69 69 70 69 71 68 67 67 70 74 77 76 75 73 75 74
78 76 74 71 70 71 71 71 70 68 69 69 68 68 70 69 68 67 67 66 65 65 65 65 64 63 63 64 68 69 68 67 66 66 65 66 66 72 75 75 74 74 74

GFSSE_sfc_temp_342.txt.gz
Temp
85 83 81 81 81 81 81 80 80 80 80 80 80 80 80 80 80 80 80 80 81 81 81 82 82 81 81 81 81 81 80 81 81 81 80 80 80 80 80 81 82 81 79
86 84 81 81 81 81 81 80 80 80 80 80 81 81 80 80 80 80 81 81 81 81 82 82 82 82 82 82 81 81 81 81 81 81 81 80 80 80 80 81 81 79 78
86 84 84 81 81 81 80 80 80 80 80 80 80 80 80 80 80 81 81 81 81 82 82 82 82 82 82 82 81 81 81 81 81 81 81 83 81 80 80 80 79 79 78
87 86 83 81 81 81 80 81 80 80 80 80 80 80 80 80 80 81 81 81 82 82 82 82 82 81 81 81 81 81 81 81 81 81 80 84 86 80 80 80 79 79 78
90 88 82 81 80 81 81 81 80 80 80 80 80 80 80 80 80 80 80 81 81 82 82 82 81 81 81 81 81 81 81 81 81 82 81 83 82 81 80 80 79 79 80
90 86 81 81 81 81 81 80 80 80 80 80 80 80 80 80 80 80 80 80 81 81 81 81 81 81 81 80 80 80 80 80 81 84 87 85 81 80 80 80 80 79 79
89 86 83 81 80 80 80 80 80 80 80 80 80 80 80 80 80 80 80 80 80 81 81 81 81 80 80 80 80 80 80 80 81 84 87 82 80 79 80 80 80 80 79
89 86 82 81 81 80 80 80 80 80 80 80 80 80 80 80 80 79 80 80 80 80 80 80 80 80 80 80 80 80 80 80 85 81 89 83 78 80 80 80 80 79 79
92 86 83 83 81 80 79 80 80 80 80 80 79 79 79 80 80 80 80 80 80 80 80 80 80 80 79 80 80 80 80 80 76 74 89 81 79 80 81 80 80 79 79
92 90 87 84 84 82 81 79 79 80 80 79 80 80 80 80 80 80 80 79 80 80 80 80 80 80 80 80 80 80 80 81 82 80 84 81 80 81 81 80 80 79 79
91 91 91 90 88 89 87 82 79 80 80 80 80 79 79 82 84 84 82 80 80 80 80 81 81 80 80 80 80 80 81 84 84 86 85 80 80 81 81 80 80 79 79
89 91 93 93 91 92 91 82 83 83 83 82 84 82 81 85 86 89 85 80 80 80 80 81 81 81 81 85 87 82 83 90 88 88 82 80 81 81 81 80 80 79 79
90 92 93 90 87 92 92 86 88 88 86 85 88 87 85 87 86 86 86 83 81 80 84 82 83 83 88 87 88 88 87 90 90 89 82 80 81 81 81 80 80 79 79
91 91 92 91 86 89 92 89 89 90 89 87 86 85 81 83 83 85 87 83 84 84 86 85 87 85 85 86 88 87 87 86 88 87 80 81 80 80 81 80 80 80 79
91 92 93 89 86 88 88 87 88 88 89 87 85 85 85 83 82 85 84 84 84 84 84 83 83 82 83 85 87 86 86 85 85 85 82 77 76 76 78 79 80 80 80
89 89 91 89 84 88 85 86 85 85 84 85 83 80 83 80 79 81 82 82 81 81 81 81 80 79 80 82 83 85 83 83 85 85 77 74 74 74 75 76 78 79 80
87 86 85 87 86 84 85 85 85 84 86 82 79 79 80 77 78 77 80 79 76 77 80 78 78 78 78 81 80 81 81 83 83 80 77 76 72 72 73 73 74 74 76
85 83 84 89 85 80 81 83 84 83 82 80 79 77 78 78 76 76 78 74 74 75 76 73 73 74 73 73 73 74 76 79 79 77 76 74 76 76 72 72 71 71 73
81 80 81 83 81 80 79 81 80 79 79 78 78 76 76 76 76 74 72 72 71 73 72 70 71 71 70 69 72 72 75 76 77 79 74 72 72 72 71 72 71 71 71
80 78 79 78 75 75 78 77 78 78 77 78 74 72 71 73 73 71 71 70 71 68 67 67 67 70 69 67 73 76 74 75 76 74 73 74 72 71 69 69 66 69 71
78 76 76 73 73 72 72 75 74 74 74 72 70 71 70 70 70 68 70 69 68 65 64 65 65 68 66 65 63 68 71 74 72 72 70 67 68 70 68 67 66 66 67
75 73 72 72 70 72 71 74 73 72 72 71 68 68 68 68 68 68 67 65 65 64 62 62 62 63 64 64 61 63 65 67 68 70 66 67 67 67 69 67 67 65 65
73 73 71 71 70 72 71 71 69 69 68 67 65 66 66 67 67 65 65 64 63 63 61 60 60 61 59 63 63 61 60 59 62 65 65 65 65 64 65 65 67 66 65
73 73 72 69 70 72 71 69 68 67 66 68 67 65 64 66 65 65 64 62 61 62 60 61 62 61 60 60 63 63 61 60 56 58 62 63 65 66 64 64 64 64 65
75 73 70 69 67 67 69 71 68 67 65 67 65 63 62 64 65 66 64 63 62 62 60 60 59 59 61 60 59 60 61 61 60 57 54 58 61 63 64 63 64 63 64
76 74 70 67 65 66 68 68 69 65 65 64 63 62 63 63 63 63 64 62 61 61 60 59 60 59 59 57 58 59 58 56 56 55 54 55 55 59 63 63 62 62 62

GFSSE_sfc_temp_345.txt.gz
Temp
75 78 80 80 80 80 80 80 80 80 80 80 80 80 80 80 80 80 80 80 80 81 81 82 82 81 81 81 81 80 80 80 80 80 80 80 80 80 81 81 80 79 79
77 78 80 80 81 81 80 80 80 80 80 80 80 80 80 80 80 80 80 80 81 81 81 82 82 82 82 81 81 80 80 80 80 80 80 81 80 80 81 80 79 78 79
77 78 79 80 81 81 80 80 80 80 80 80 80 80 80 80 80 80 80 80 81 81 81 82 81 81 81 81 81 81 80 80 80 80 81 77 78 81 80 80 79 79 78
78 77 78 80 81 80 80 79 80 80 80 80 80 80 80 80 80 80 80 80 81 82 82 81 81 81 81 81 81 80 80 80 81 80 78 82 84 80 80 79 79 79 78
77 77 79 80 80 80 80 80 80 80 79 80 80 80 80 80 79 79 80 80 81 82 82 81 81 80 80 80 80 80 80 80 81 81 77 77 77 80 80 79 79 79 79
76 77 79 80 80 80 80 80 80 80 80 80 80 80 80 79 79 79 79 80 80 81 81 81 80 80 80 80 80 80 80 80 81 78 80 79 76 80 80 79 79 79 78
76 77 79 80 81 80 80 80 80 80 79 79 80 80 79 79 79 79 79 80 80 80 80 80 80 80 79 79 80 79 79 80 79 78 79 80 77 78 80 80 79 79 78
77 77 79 81 80 79 80 80 79 79 79 79 79 79 79 79 79 79 79 80 80 80 80 80 79 79 79 79 79 79 79 80 81 77 80 77 77 79 80 79 79 79 79
78 76 76 77 80 79 79 79 79 79 79 79 78 78 79 79 79 79 79 79 79 79 79 79 79 79 79 79 79 79 79 80 70 74 80 75 78 79 80 79 79 79 79
77 76 75 75 75 74 76 79 79 79 78 78 78 78 78 79 79 79 79 79 79 80 80 80 80 80 79 79 79 79 79 80 75 75 75 78 79 80 80 79 79 79 78
78 76 76 75 74 74 74 78 78 79 79 78 78 79 77 74 75 78 79 79 80 80 80 80 80 80 80 80 80 80 81 80 77 76 76 79 79 81 80 79 79 79 78
77 78 77 77 76 77 81 75 72 76 74 73 74 73 73 74 75 81 80 80 80 80 80 80 80 80 80 78 80 81 77 79 83 81 74 79 80 81 80 79 79 79 79
81 82 81 81 80 81 80 75 75 75 74 74 75 75 74 79 76 80 75 77 76 78 76 79 78 78 78 78 79 79 79 80 80 77 80 79 80 81 81 80 79 79 79
80 83 81 82 79 81 79 77 78 79 77 76 77 77 75 73 75 75 76 75 75 76 75 76 75 77 78 79 79 79 80 79 78 77 77 77 78 79 80 80 79 79 79
79 79 81 81 77 77 80 78 77 79 76 76 76 76 74 73 73 77 74 75 74 74 74 74 74 74 75 77 78 79 79 80 79 74 75 76 76 77 78 79 80 79 79
82 80 81 80 76 77 76 76 76 75 76 74 72 72 72 71 71 71 73 71 70 71 72 71 71 71 72 73 75 77 78 78 76 73 72 72 74 75 75 76 77 79 79
79 77 79 76 77 75 75 75 74 76 75 72 71 71 71 70 68 69 70 68 67 69 70 69 69 69 69 72 71 73 75 75 75 73 71 71 71 73 73 73 75 76 77
73 77 77 82 73 73 74 74 73 75 73 71 70 69 70 70 69 67 66 65 66 66 65 65 65 65 66 66 66 68 69 72 73 72 73 74 72 71 71 72 74 75 75
73 73 72 75 73 73 73 71 71 71 71 70 68 67 67 68 68 65 64 64 64 63 61 62 62 62 63 63 67 67 66 69 71 73 70 68 69 68 69 72 72 72 71
72 71 70 71 71 72 74 69 69 70 68 67 66 64 65 66 67 63 63 62 62 60 60 60 59 60 61 59 67 67 66 68 70 66 66 68 65 64 63 62 62 68 71
70 69 67 67 67 69 68 66 66 65 64 64 64 64 63 63 64 62 61 60 60 58 57 59 58 59 58 57 57 61 64 66 66 63 63 62 64 63 63 61 60 60 64
69 67 66 66 66 66 66 67 67 67 62 61 60 61 62 61 61 61 59 58 58 56 55 55 54 55 57 57 55 55 58 61 61 62 61 63 61 62 63 63 62 60 59
69 71 68 68 68 66 69 67 67 67 64 57 58 58 59 61 60 59 57 56 55 55 53 53 53 53 52 55 56 56 57 55 55 61 60 61 60 59 59 60 62 61 59
69 68 69 68 68 68 69 68 66 64 61 61 57 56 57 59 59 59 57 56 54 53 52 52 54 52 52 51 54 58 55 54 51 52 55 56 57 59 57 58 59 61 59
68 66 66 66 65 65 65 66 66 63 63 61 57 54 55 55 57 59 56 55 53 52 52 52 51 51 51 49 49 50 52 52 51 50 47 51 53 54 55 57 57 57 59
67 65 64 63 62 63 64 64 64 64 61 59 57 52 53 53 53 55 56 53 52 52 51 51 51 50 50 49 48 49 50 48 47 47 46 45 46 52 54 55 55 55 55